Погода в Блэкхете

Австралия     33°37′34″S   150°17′50″E
темп.,
°C
ветер,
м/с
пор.,
м/с
влажн.,
%
обл.,
%
осадки,
мм/ч
давл.,
гПа
погр.,
м
26 февраля, пт
пт2623:00+15сз229637 0.2 100955
02:00+14сз22960 0.0 100955
05:00+14сз22950 0.0 100964
08:00+16сз12830 0.0 101194
11:00+26зсз39400 0.0 10112030
14:00+29зсз47270 0.0 10102485
17:00+28зсз24260 0.0 10092137
20:00+16вюв239556 0.0 1012208
27 февраля, сб
сб2723:00+16в129478 0.1 1015191
02:00+15вюв1197100 0.1 1014126
05:00+15в1196100 0.1 1014108
08:00+15всв1192100 0.0 1015176
11:00+20с1472100 0.1 1015732
14:00+23св1258100 0.4 1013836
17:00+25ссв224983 0.4 1011942
20:00+19ссв117839 0.4 101230
28 февраля, вс
вс2823:00+15сз129019 0.4 101333
02:00+14зсз12920 0.0 101224
05:00+14сз11870 0.0 101223
08:00+17сз11720 0.0 101445
11:00+27вюв12370 0.0 10131486
14:00+28в343445 0.1 10112179
17:00+26в324055 0.1 10091299
20:00+19всв118465 0.4 101125
1 марта, пн
пн123:00+16ю019734 1.6 101323
02:00+15сз11980 0.0 101224
05:00+15сз22980 0.0 101135
08:00+16сз22920 0.0 101261
11:00+28зсз262811 0.0 10112313
14:00+29зсз472823 0.0 10092725
17:00+28сз583228 0.0 10072232
20:00+22зсз224847 0.0 100836
2 марта, вт
вт223:00+16ссз016124 0.0 101123
02:00+12ю01910 0.0 101228
05:00+14юз019031 0.0 101295
08:00+15в018679 0.0 1014275
11:00+20в225865 0.1 10141025
14:00+20в335922 0.0 1013847
17:00+17в237036 0.0 1012646
20:00+13в238175 0.0 1015456